Location: Moscow
(38.3171°N, 79.0889°W)
Time: 22:22:44
(UTC+00:00)

SJ-7 - Pass Details

Date: 07 November 2025
Orbit: 500 x 522 km, 97.7° (Epoch: 14 December)

Event Time Altitude Azimuth Distance (km) Brightness Sun altitude
Rises 23:33:26 0° 161° (SSE) 2,598 7.7 -16.6°
Reaches altitude 10° 23:35:32 10° 158° (SSE) 1,714 6.7 -17.0°
Maximum altitude 23:39:11 68° 76° (ENE) 547 4.0 -17.7°
Drops below altitude 10° 23:42:51 10° 353° (N) 1,717 6.8 -18.4°
Sets 23:44:57 0° 351° (N) 2,603 7.8 -18.9°
